Location: Zagreb
(45.8000°N, 16.0000°E)
Time: 01:46:45
(UTC+02:00)

Transit 2A Rocket - Pass Details

Date: 30 January 2022
Orbit: 592 x 909 km, 66.7° (Epoch: 26 May)

Event Time Altitude Azimuth Distance (km) Brightness Sun altitude
Rises 02:50:58 0° 323° (NW) 3,421 - -46.3°
Reaches altitude 10° 02:53:35 10° 318° (NW) 2,438 - -45.9°
Maximum altitude 02:58:59 50° 245° (WSW) 983 - -45.1°
Drops below altitude 10° 03:03:53 10° 171° (S) 2,216 - -44.3°
Sets 03:06:10 0° 166° (SSE) 3,082 - -43.9°
